Location: Angwan Shehu
(11.2514°N, 7.4613°E)
Time: 04:56:09
(UTC+00:00)

Vanguard 3 - Pass Details

Date: 02 August 2021
Orbit: 510 x 3260 km, 33.3° (Epoch: 16 September)

Event Time Altitude Azimuth Distance (km) Brightness Sun altitude
Rises 00:50:58 0° 299° (WNW) 7,147 11.9 -55.7°
Reaches altitude 10° 00:56:10 10° 296° (WNW) 5,957 11.4 -55.0°
Enters shadow 00:58:14 15° 295° (WNW) 5,473 11.2 -54.7°
